Minot, ND

10:43 AM CST on February 06, 2016 (GMT -0600)
Minot International

Weather History for KMOT - March, 2012

Change the Weather History Date:

Friday, March 23, 2012

  Actual Average Record
Temperature  
Mean Temperature 51 °F 32 °F  
Max Temperature 62 °F 41 °F 79 °F (1910)
Min Temperature 40 °F 22 °F -14 °F (1974)
Degree Days  
Heating Degree Days 14 33  
Month to date heating degree days 551 887  
Since 1 July heating degree days 5970 7463  
Cooling Degree Days 0 0  
Month to date cooling degree days 0 0  
Year to date cooling degree days 0 0  
Growing Degree Days 2 (Base 50)    
Moisture  
Dew Point 48 °F    
Average Humidity 86    
Maximum Humidity 100    
Minimum Humidity 72    
Precipitation  
Precipitation 0.00 in 0.03 in 0.76 in (1964)
Month to date precipitation 0.08 0.57  
Year to date precipitation 0.31 1.48  
Sea Level Pressure  
Sea Level Pressure 29.90 in    
Wind  
Wind Speed 5 mph (SE)    
Max Wind Speed 13 mph    
Max Gust Speed 16 mph    
Visibility 5 miles    
Events Fog    
T = Trace of Precipitation, MM = Missing Value Source: NWS Daily Summary

Daily Weather History Graph

Daily Weather History Graph

Search for Another Location

Airport or City:

Trip Planner

Search our weather history database for the weather conditions in past years. The results will help you decide how hot, cold, wet, or windy it might be!

Date:

Astronomy

Mar. 23, 2012 Rise Set
Actual Time 7:40 AM CDT 8:03 PM CDT
Civil Twilight 7:09 AM CDT 8:34 PM CDT
Nautical Twilight 6:32 AM CDT 9:11 PM CDT
Astronomical Twilight 5:54 AM CDT 9:49 PM CDT
Moon 7:41 AM CDT (3/23) 9:38 PM CDT (3/23)
Length of Visible Light 13h 24m
Length of Day
12h 22m
New Moon, 1% of the Moon is Illuminated
Mar 23
New Moon
Mar 30
First Quarter
Apr 6
Full
Apr 13
Last Quarter
Apr 21
New

Hourly Weather History & Observations

Time (CDT) Temp. Windchill Dew Point Humidity Pressure Visibility Wind Dir Wind Speed Gust Speed Precip Events Conditions
12:54 AM 48.0 °F - 46.0 °F 93% 29.89 in 10.0 mi SE 4.6 mph - N/A   Clear
1:54 AM 46.9 °F - 45.0 °F 93% 29.88 in 10.0 mi SSE 3.5 mph - N/A   Clear
2:54 AM 43.0 °F - 42.1 °F 97% 29.89 in 4.0 mi Calm Calm - N/A   Clear
3:03 AM 44.6 °F - 42.8 °F 93% 29.89 in 1.8 mi Calm Calm - N/A   Clear
3:12 AM 46.4 °F - 44.6 °F 93% 29.89 in 0.8 mi Calm Calm - N/A   Clear
3:16 AM 46.4 °F 45.2 °F 46.4 °F 100% 29.89 in 2.0 mi SSE 3.5 mph - N/A   Clear
3:23 AM 46.4 °F - 46.4 °F 100% 29.89 in 6.0 mi Calm Calm - N/A   Clear
3:45 AM 46.4 °F 45.2 °F 44.6 °F 93% 29.89 in 1.8 mi SSE 3.5 mph - N/A   Clear
3:49 AM 46.4 °F - 44.6 °F 93% 29.88 in 0.8 mi Calm Calm - N/A   Mist
3:54 AM 44.1 °F - 44.1 °F 100% 29.89 in 0.2 mi Calm Calm - N/A Fog Fog
4:07 AM 44.6 °F - 42.8 °F 93% 29.88 in 0.2 mi Calm Calm - N/A Fog Fog
4:50 AM 44.6 °F - 42.8 °F 93% 29.89 in 0.2 mi Calm Calm - N/A Fog Fog
4:54 AM 43.0 °F - 42.1 °F 97% 29.90 in 0.2 mi Calm Calm - N/A Fog Fog
5:54 AM 43.0 °F 40.3 °F 43.0 °F 100% 29.90 in 0.2 mi SE 4.6 mph - N/A Fog Fog
6:54 AM 42.1 °F - 42.1 °F 100% 29.91 in 0.2 mi Calm Calm - N/A Fog Fog
7:54 AM 42.1 °F 40.2 °F 41.0 °F 96% 29.93 in 0.2 mi SE 3.5 mph - N/A Fog Fog
8:47 AM 44.6 °F 43.1 °F 44.6 °F 100% 29.92 in 0.2 mi SSE 3.5 mph - N/A Fog Fog
8:54 AM 44.1 °F 41.5 °F 44.1 °F 100% 29.95 in 0.2 mi SSE 4.6 mph - N/A Fog Fog
9:03 AM 44.6 °F 42.2 °F 44.6 °F 100% 29.93 in 0.2 mi SSE 4.6 mph - N/A Fog Fog
9:12 AM 44.6 °F 43.1 °F 44.6 °F 100% 29.93 in 0.8 mi SSE 3.5 mph - N/A   Mist
9:21 AM 46.4 °F 45.2 °F 44.6 °F 93% 29.93 in 2.0 mi SSE 3.5 mph - N/A   Overcast
9:33 AM 48.2 °F - 46.4 °F 93% 29.93 in 4.0 mi Calm Calm - N/A   Overcast
9:54 AM 50.0 °F - 48.9 °F 96% 29.95 in 5.0 mi Calm Calm - N/A   Overcast
10:51 AM 53.6 °F - 51.8 °F 94% 29.92 in 6.0 mi Calm Calm - N/A   Overcast
10:54 AM 53.1 °F - 52.0 °F 96% 29.95 in 7.0 mi Calm Calm - N/A   Overcast
11:54 AM 57.2 °F - 53.6 °F 88% 29.92 in 9.0 mi ESE 8.1 mph - N/A   Overcast
12:54 PM 59.0 °F - 53.1 °F 81% 29.93 in 6.0 mi ESE 6.9 mph - N/A   Haze
1:54 PM 59.0 °F - 53.1 °F 81% 29.92 in 7.0 mi SE 6.9 mph - N/A   Overcast
2:54 PM 61.0 °F - 54.0 °F 78% 29.90 in 10.0 mi East 8.1 mph - N/A   Overcast
3:54 PM 61.0 °F - 54.0 °F 78% 29.89 in 10.0 mi East 10.4 mph - N/A   Overcast
4:38 PM 60.8 °F - 53.6 °F 77% 29.86 in 10.0 mi East 9.2 mph - N/A   Overcast
4:54 PM 61.0 °F - 54.0 °F 78% 29.88 in 10.0 mi ESE 9.2 mph - N/A   Overcast
5:54 PM 61.0 °F - 54.0 °F 78% 29.87 in 10.0 mi East 9.2 mph - N/A   Overcast
6:54 PM 62.1 °F - 54.0 °F 75% 29.86 in 10.0 mi East 10.4 mph - N/A   Mostly Cloudy
7:28 PM 59.0 °F - 53.6 °F 82% 29.84 in 10.0 mi East 9.2 mph - N/A   Partly Cloudy
7:54 PM 57.0 °F - 52.0 °F 83% 29.86 in 10.0 mi East 5.8 mph - N/A   Clear
8:54 PM 55.9 °F - 53.1 °F 90% 29.86 in 10.0 mi East 8.1 mph - N/A   Clear
9:54 PM 55.0 °F - 52.0 °F 89% 29.85 in 10.0 mi ESE 9.2 mph - N/A   Clear
10:54 PM 53.1 °F - 51.1 °F 93% 29.85 in 7.0 mi ESE 8.1 mph - N/A   Clear
11:54 PM 52.0 °F - 51.1 °F 97% 29.86 in 5.0 mi SE 4.6 mph - N/A   Mostly Cloudy